Actual water levels and discharges of Morava river

Lanžhot

Date and time (UTC) H (cm) Q (m³/s)
6. 12. 2022 03:30 14 11.9
6. 12. 2022 03:00 14 12
6. 12. 2022 02:00 14 12
6. 12. 2022 01:00 13 12
6. 12. 2022 00:00 13 12
5. 12. 2022 23:00 13 12
5. 12. 2022 22:00 13 12
5. 12. 2022 21:00 12 11
5. 12. 2022 20:00 12 11
5. 12. 2022 19:00 12 11
5. 12. 2022 18:00 12 11
5. 12. 2022 17:00 12 11
5. 12. 2022 16:00 12 11
5. 12. 2022 15:00 12 11

H - water level, Q - discharge

Strážnice

Date and time (UTC) H (cm) Q (m³/s)
6. 12. 2022 03:20 95 12.8
6. 12. 2022 03:00 94 12
6. 12. 2022 02:00 95 13
6. 12. 2022 01:00 95 13
6. 12. 2022 00:00 95 13
5. 12. 2022 23:00 95 13
5. 12. 2022 22:00 95 13
5. 12. 2022 21:00 95 13
5. 12. 2022 20:00 95 13
5. 12. 2022 19:00 95 13
5. 12. 2022 18:00 95 13
5. 12. 2022 17:00 95 13
5. 12. 2022 16:00 95 13
5. 12. 2022 15:00 95 13

H - water level, Q - discharge
more information

Spytihněv

Date and time (UTC) H (cm) Q (m³/s)
6. 12. 2022 03:20 79 10.7
6. 12. 2022 03:00 77 10
6. 12. 2022 02:00 75 9
6. 12. 2022 01:00 75 9
6. 12. 2022 00:00 80 11
5. 12. 2022 23:00 82 12
5. 12. 2022 22:00 77 10
5. 12. 2022 21:00 72 8
5. 12. 2022 20:00 72 8
5. 12. 2022 19:00 77 10
5. 12. 2022 18:00 83 12
5. 12. 2022 17:00 78 10
5. 12. 2022 16:00 74 9
5. 12. 2022 15:00 85 13

H - water level, Q - discharge

Kroměříž

Date and time (UTC) H (cm) Q (m³/s)
6. 12. 2022 03:20 116 10.2
6. 12. 2022 03:00 116 10
6. 12. 2022 02:00 115 10
6. 12. 2022 01:00 115 10
6. 12. 2022 00:00 115 10
5. 12. 2022 23:00 115 10
5. 12. 2022 22:00 116 10
5. 12. 2022 21:00 116 10
5. 12. 2022 20:00 116 10
5. 12. 2022 19:00 115 10
5. 12. 2022 18:00 116 10
5. 12. 2022 17:00 117 11
5. 12. 2022 16:00 117 11
5. 12. 2022 15:00 117 11

H - water level, Q - discharge
more information

Olomouc-Nové Sady tok

Date and time (UTC) H (cm) Q (m³/s)
6. 12. 2022 03:30 80 5.5
6. 12. 2022 03:00 80 6
6. 12. 2022 02:00 81 6
6. 12. 2022 01:00 81 6
6. 12. 2022 00:00 81 6
5. 12. 2022 23:00 81 6
5. 12. 2022 22:00 81 6
5. 12. 2022 21:00 81 6
5. 12. 2022 20:00 80 6
5. 12. 2022 19:00 79 5
5. 12. 2022 18:00 80 6
5. 12. 2022 17:00 80 6
5. 12. 2022 16:00 77 5
5. 12. 2022 15:00 72 4

H - water level, Q - discharge

Moravičany

Date and time (UTC) H (cm) Q (m³/s)
6. 12. 2022 03:30 88 8.8
6. 12. 2022 03:00 88 9
6. 12. 2022 02:00 88 9
6. 12. 2022 01:00 88 9
6. 12. 2022 00:00 88 9
5. 12. 2022 23:00 88 9
5. 12. 2022 22:00 88 9
5. 12. 2022 21:00 88 9
5. 12. 2022 20:00 88 9
5. 12. 2022 19:00 88 9
5. 12. 2022 18:00 88 9
5. 12. 2022 17:00 88 9
5. 12. 2022 16:00 87 8
5. 12. 2022 15:00 88 9

H - water level, Q - discharge
Source data
Labe Basin Vltava Basin Povodí Moravy ČHMÚ